User: anonymous   Login
Location: Oshawa
(43.9000°N, 78.8670°W)
Time: 18:08:06
(UTC-04:00)
Language:

SPOT 5 - Orbit

View from above orbital plane
View from above orbital plane
View from above satellite
View from above satellite

Ground track
Ground track

The orbit data is extracted from the following two-line orbital elements,

1 27421U 02021A   14304.47695473  .00000045  00000-0  40963-4 0   815
2 27421 098.5447 003.1718 0001443 083.9933 005.1053 14.20119936647661
Epoch (UTC): 31 October 2014 11:26:48
Eccentricity: 0.0001443
inclination: 98.5447°
perigee height: 824 km
apogee height: 826 km
right ascension of ascending node: 3.1718°
argument of perigee: 83.9933°
revolutions per day: 14.20119936
mean anomaly at epoch: 5.1053°
orbit number at epoch: 64766

The dashed part of the orbit path shows where the satellite is in the earth's shadow,  

DLR